[[{"header":{"parameterUnit":"m.s-1","parameterCategory":1,"la1":30.2992,"la2":30.254,"lo1":-89.0895,"lo2":-89.0443,"dy":0.0025,"dx":0.0025,"nx":19,"ny":19,"refTime":"2026-05-09T21:00:00:Z","depth":0,"parameterNumber":2,"parameterNumberName":"U-component_of_WINDS"},"data":[0,0,0,-2.828,-2.8281,-2.8326,-2.8326,-2.8395,-2.8396,0,0,0,0,0,0,0,0,0,0,0,-2.8275,-2.8276,-2.828,-2.8282,-2.8326,-2.8326,-2.8395,-2.8396,0,0,0,0,0,0,0,0,0,0,0,-2.8274,-2.8275,-2.8276,-2.8282,-2.8326,-2.8326,-2.8395,-2.8357,0,0,0,0,0,0,0,0,0,0,-2.8311,-2.8314,-2.8275,-2.8276,-2.8282,-2.8326,-2.8326,-2.8355,-2.8359,-2.838,0,-2.8401,0,-2.84,-2.8401,-2.8402,0,0,0,-2.8276,-2.831,-2.8315,-2.8276,-2.8283,-2.8326,-2.8304,-2.8357,-2.8362,-2.8386,-2.8402,-2.8404,-2.8401,-2.8402,-2.8402,-2.8543,-2.8543,0,0,-2.8273,-2.8287,-2.8312,-2.8319,-2.8313,-2.8303,-2.8306,-2.836,-2.8378,-2.8402,-2.8406,-2.8402,-2.8402,-2.8403,-2.8542,-2.8543,0,0,0,-2.827,-2.8285,-2.8289,-2.8317,-2.8324,-2.8304,-2.8308,-2.8376,-2.8376,-2.8406,-2.8403,-2.8403,-2.8404,-2.8541,-2.8542,-2.86,0,0,0,-2.8268,-2.8283,-2.8288,-2.8297,-2.8323,-2.835,-2.8322,-2.8372,-2.8378,-2.8402,-2.8403,-2.8405,-2.854,-2.8541,-2.8596,-2.8625,0,0,0,-2.8269,-2.8283,-2.8293,-2.8297,-2.8317,-2.8349,-2.8352,-2.8373,-2.8376,-2.8402,-2.8405,-2.8539,-2.8541,-2.8593,-2.8619,-2.8664,0,0,0,-2.8274,-2.8344,-2.8294,-2.8371,-2.8317,-2.8385,-2.8352,-2.8402,-2.8431,-2.8403,-2.854,-2.8542,-2.8592,-2.8616,-2.8661,-2.8704,-2.8724,0,0,-2.837,-2.8356,-2.84,-2.8356,-2.8437,-2.8377,-2.8466,-2.848,-2.8471,-2.8519,-2.8522,-2.8597,-2.8619,-2.8664,-2.8832,-2.8848,0,0,0,-2.8435,-2.8466,-2.8485,-2.8513,-2.8526,-2.8539,-2.8538,-2.8543,-2.8583,-2.8498,-2.8626,-2.8639,-2.8665,-2.8684,-2.8698,-2.8718,-2.8552,-2.8552,-2.8552,-2.8589,-2.8572,-2.8644,-2.8633,-2.8661,-2.866,-2.8681,-2.8687,-2.8663,-2.8694,-2.8707,-2.8811,-2.8835,-2.8845,-2.8867,-2.873,-2.873,-2.873,-2.8731,-2.8726,-2.8768,-2.8734,-2.8791,-2.8774,-2.8821,-2.8823,-2.8804,-2.8845,-2.88,-2.8822,-2.8772,-2.8863,-2.8881,-2.8735,-2.8734,-2.8734,-2.8733,-2.8733,-2.8823,-2.884,-2.8846,-2.8885,-2.8917,-2.8904,-2.8945,-2.8928,-2.8912,-2.8934,-2.8946,-2.8945,-2.8941,-2.8942,-2.8942,-2.8942,-2.8943,-2.8943,-2.8943,-2.8922,-2.8926,-2.8963,-2.8982,-2.8998,-2.9016,-2.9016,-2.9031,-2.9043,-2.9027,-2.9027,-2.8999,-2.8875,-2.8844,-2.8949,-2.8948,-2.8947,-2.8946,-2.8946,-2.9064,-2.9029,-2.9086,-2.9102,-2.9123,-2.9155,-2.9134,-2.9165,-2.9175,-2.9196,-2.9164,-2.9076,-2.906,-2.905,-2.9023,-2.9168,-2.9168,-2.9168,-2.9168,-2.9145,-2.9136,-2.919,-2.9216,-2.924,-2.9226,-2.9291,-2.9291,-2.9286,-2.9291,-2.9268,-2.9232,-2.9222,-2.9212,-2.9198,-2.9173,-2.9352,-2.9353,-2.9353,-2.9232,-2.9224,-2.9282,-2.9276,-2.9292,-2.9305,-2.9364,-2.9395,-2.9382,-2.936,-2.9294,-2.9286,-2.9228,-2.921,-2.9184,-2.9163,-2.9116,0,0]},{"header":{"parameterUnit":"m.s-1","parameterCategory":1,"la1":30.2992,"la2":30.254,"lo1":-89.0895,"lo2":-89.0443,"dy":0.0025,"dx":0.0025,"nx":19,"ny":19,"refTime":"2026-05-09T21:00:00:Z","depth":0,"parameterNumber":3,"parameterNumberName":"V-component_of_WINDS"},"data":[0,0,0,2.399,2.3991,2.4051,2.4051,2.4128,2.4129,0,0,0,0,0,0,0,0,0,0,0,2.3973,2.3974,2.399,2.3991,2.4051,2.4052,2.4128,2.4129,0,0,0,0,0,0,0,0,0,0,0,2.3973,2.3974,2.3974,2.3991,2.4051,2.4052,2.4128,2.4082,0,0,0,0,0,0,0,0,0,0,2.4024,2.401,2.3973,2.3974,2.3992,2.4051,2.4052,2.408,2.4085,2.4102,0,2.4118,0,2.4125,2.4134,2.4135,0,0,0,2.3989,2.4006,2.4021,2.3975,2.3992,2.4051,2.4024,2.4083,2.4089,2.4108,2.4119,2.4122,2.4126,2.4135,2.4135,2.424,2.424,0,0,2.3986,2.3984,2.4017,2.4025,2.4018,2.4022,2.4026,2.4086,2.4097,2.4119,2.4124,2.4128,2.4136,2.4136,2.4239,2.424,0,0,0,2.3978,2.3982,2.3996,2.4022,2.4033,2.4024,2.4028,2.4095,2.4099,2.4125,2.4128,2.4136,2.4137,2.4239,2.4239,2.4267,0,0,0,2.3976,2.3977,2.3994,2.3994,2.4032,2.4065,2.4035,2.4095,2.4102,2.4128,2.4136,2.4138,2.4238,2.4239,2.4265,2.428,0,0,0,2.3969,2.3976,2.3986,2.3994,2.402,2.4064,2.4072,2.4097,2.4105,2.4135,2.4138,2.4238,2.4239,2.4263,2.4277,2.4308,0,0,0,2.396,2.4008,2.3986,2.4041,2.4019,2.4081,2.4072,2.4117,2.4146,2.4136,2.4238,2.4239,2.4262,2.4275,2.4306,2.4334,2.4346,0,0,2.4019,2.4015,2.4047,2.4029,2.4095,2.4072,2.414,2.4168,2.4171,2.4216,2.4219,2.4266,2.4277,2.4308,2.441,2.4419,0,0,0,2.4065,2.4088,2.4106,2.4135,2.4158,2.4179,2.4196,2.4207,2.4246,2.4195,2.4285,2.4291,2.4309,2.4323,2.4331,2.4347,2.4245,2.4245,2.4245,2.4146,2.4149,2.4203,2.4214,2.4242,2.426,2.4282,2.4299,2.4293,2.4314,2.4328,2.439,2.4406,2.4411,2.4428,2.4342,2.4342,2.4342,2.4342,2.4233,2.4267,2.4259,2.4308,2.4311,2.4352,2.4371,2.4366,2.4404,2.4379,2.4395,2.4369,2.4421,2.4436,2.4345,2.4344,2.4344,2.4344,2.4344,2.4287,2.4304,2.4316,2.4359,2.4391,2.44,2.4437,2.4438,2.4438,2.4454,2.4469,2.4469,2.4469,2.4461,2.4462,2.4462,2.4462,2.4462,2.4462,2.4338,2.4351,2.4384,2.4414,2.4433,2.4458,2.4476,2.4495,2.4515,2.4512,2.4512,2.4505,2.4426,2.4407,2.4466,2.4465,2.4465,2.4464,2.4464,2.4426,2.4407,2.4457,2.4476,2.4511,2.4544,2.4544,2.4581,2.4596,2.4615,2.4604,2.4545,2.454,2.4534,2.4518,2.4602,2.4602,2.4602,2.4602,2.4472,2.447,2.4523,2.4554,2.4584,2.459,2.4646,2.4661,2.4673,2.4682,2.467,2.4648,2.4642,2.4641,2.4632,2.4618,2.4725,2.4725,2.4725,2.4528,2.4529,2.4577,2.459,2.4618,2.4641,2.4694,2.4729,2.4738,2.473,2.469,2.4684,2.465,2.4639,2.4631,2.4617,2.459,0,0]}]]